QPF
0.00 0.00 0.00 0.00 0.00 0.00 0.01 0.01 0.01 0.01 0.00 0.00 0.00 0.01 0.01 0.01 0.01 0.01 0.01 0.01 0.03 0.05 0.05 0.06 0.05 0.05 0.08 0.09 0.07 0.08 0.10 0.11 0.09 0.10 0.10 0.10 0.10 0.09 0.09 0.08 0.08 0.07 0.07 0.07
0.00 0.00 0.00 0.00 0.00 0.00 0.00 0.00 0.00 0.00 0.00 0.00 0.00 0.01 0.02 0.01 0.01 0.01 0.01 0.01 0.02 0.04 0.05 0.06 0.06 0.05 0.08 0.11 0.11 0.11 0.12 0.13 0.10 0.10 0.10 0.11 0.12 0.09 0.08 0.07 0.07 0.07 0.07 0.06
0.01 0.00 0.01 0.01 0.00 0.00 0.00 0.00 0.01 0.01 0.00 0.00 0.01 0.02 0.02 0.02 0.02 0.02 0.02 0.01 0.02 0.03 0.05 0.06 0.08 0.06 0.08 0.10 0.13 0.15 0.16 0.15 0.12 0.10 0.10 0.11 0.12 0.10 0.08 0.07 0.06 0.06 0.06 0.06
0.02 0.01 0.01 0.01 0.00 0.00 0.00 0.00 0.01 0.01 0.01 0.01 0.01 0.02 0.02 0.02 0.03 0.03 0.03 0.03 0.02 0.02 0.04 0.05 0.06 0.07 0.07 0.08 0.10 0.16 0.20 0.20 0.18 0.14 0.10 0.11 0.12 0.10 0.08 0.07 0.07 0.07 0.06 0.06
0.03 0.02 0.01 0.01 0.00 0.00 0.00 0.01 0.01 0.01 0.01 0.01 0.01 0.01 0.01 0.01 0.02 0.03 0.03 0.04 0.03 0.03 0.04 0.04 0.06 0.07 0.06 0.07 0.09 0.14 0.18 0.21 0.23 0.20 0.14 0.13 0.13 0.12 0.10 0.09 0.08 0.08 0.07 0.07
0.03 0.02 0.01 0.01 0.00 0.00 0.01 0.01 0.01 0.01 0.01 0.01 0.01 0.01 0.01 0.01 0.02 0.03 0.03 0.04 0.04 0.04 0.05 0.04 0.05 0.07 0.06 0.06 0.08 0.11 0.14 0.18 0.21 0.21 0.18 0.16 0.14 0.13 0.11 0.10 0.09 0.09 0.08 0.07
0.02 0.02 0.01 0.01 0.00 0.00 0.01 0.02 0.01 0.01 0.01 0.01 0.01 0.02 0.02 0.02 0.03 0.03 0.03 0.04 0.04 0.04 0.06 0.07 0.07 0.07 0.06 0.06 0.08 0.10 0.11 0.15 0.17 0.18 0.19 0.20 0.19 0.16 0.13 0.11 0.11 0.11 0.10 0.08
0.02 0.03 0.02 0.01 0.00 0.01 0.02 0.01 0.01 0.01 0.02 0.02 0.02 0.02 0.02 0.02 0.03 0.03 0.03 0.03 0.05 0.05 0.05 0.07 0.07 0.07 0.07 0.09 0.10 0.10 0.12 0.12 0.15 0.16 0.15 0.16 0.18 0.20 0.17 0.13 0.12 0.12 0.11 0.11
0.02 0.02 0.02 0.01 0.01 0.02 0.01 0.01 0.01 0.01 0.01 0.02 0.01 0.01 0.01 0.02 0.02 0.03 0.03 0.04 0.04 0.05 0.06 0.06 0.06 0.06 0.07 0.09 0.11 0.11 0.12 0.12 0.13 0.14 0.14 0.13 0.13 0.15 0.19 0.18 0.15 0.12 0.11 0.10
0.02 0.02 0.02 0.02 0.02 0.02 0.01 0.01 0.01 0.01 0.01 0.01 0.01 0.01 0.01 0.01 0.01 0.02 0.02 0.03 0.03 0.04 0.05 0.04 0.04 0.06 0.06 0.07 0.09 0.12 0.11 0.11 0.11 0.11 0.12 0.12 0.12 0.11 0.13 0.15 0.15 0.13 0.12 0.11
0.02 0.02 0.02 0.02 0.02 0.02 0.01 0.01 0.01 0.01 0.01 0.01 0.00 0.01 0.01 0.01 0.01 0.01 0.01 0.01 0.02 0.02 0.03 0.03 0.03 0.04 0.05 0.05 0.06 0.09 0.09 0.08 0.08 0.09 0.10 0.10 0.11 0.10 0.10 0.10 0.11 0.13 0.13 0.12
0.02 0.01 0.01 0.01 0.01 0.01 0.01 0.01 0.01 0.00 0.00 0.00 0.00 0.00 0.00 0.00 0.01 0.01 0.01 0.01 0.01 0.01 0.01 0.01 0.02 0.02 0.03 0.04 0.04 0.05 0.06 0.06 0.06 0.07 0.08 0.08 0.08 0.08 0.08 0.08 0.09 0.10 0.11 0.10
0.01 0.01 0.01 0.00 0.00 0.00 0.00 0.01 0.00 0.00 0.00 0.00 0.00 0.00 0.01 0.01 0.01 0.01 0.01 0.01 0.01 0.01 0.01 0.01 0.01 0.01 0.02 0.03 0.03 0.03 0.03 0.04 0.04 0.05 0.05 0.06 0.06 0.06 0.06 0.07 0.07 0.07 0.07 0.06
0.01 0.01 0.00 0.00 0.00 0.00 0.00 0.01 0.01 0.00 0.00 0.00 0.00 0.00 0.01 0.01 0.01 0.01 0.01 0.01 0.01 0.01 0.01 0.01 0.01 0.01 0.02 0.02 0.02 0.02 0.02 0.03 0.03 0.04 0.04 0.04 0.05 0.05 0.05 0.05 0.05 0.06 0.06 0.05
0.01 0.01 0.01 0.01 0.01 0.01 0.01 0.01 0.00 0.00 0.00 0.00 0.00 0.00 0.01 0.01 0.01 0.01 0.01 0.01 0.01 0.01 0.01 0.01 0.01 0.01 0.01 0.02 0.02 0.02 0.02 0.02 0.02 0.03 0.03 0.03 0.03 0.04 0.04 0.04 0.04 0.04 0.04 0.04
0.01 0.01 0.01 0.01 0.01 0.01 0.01 0.00 0.00 0.00 0.00 0.00 0.00 0.00 0.00 0.00 0.00 0.00 0.00 0.00 0.00 0.01 0.01 0.01 0.01 0.01 0.01 0.01 0.01 0.01 0.01 0.02 0.02 0.02 0.02 0.02 0.03 0.03 0.03 0.03 0.03 0.03 0.03 0.03
0.00 0.00 0.00 0.00 0.00 0.00 0.00 0.00 0.00 0.00 0.00 0.00 0.00 0.00 0.00 0.00 0.00 0.00 0.00 0.00 0.00 0.01 0.01 0.01 0.01 0.01 0.01 0.01 0.01 0.01 0.01 0.01 0.02 0.02 0.02 0.02 0.02 0.03 0.03 0.03 0.02 0.02 0.03 0.03
0.01 0.01 0.01 0.00 0.00 0.00 0.00 0.00 0.00 0.00 0.00 0.00 0.00 0.00 0.00 0.00 0.00 0.00 0.00 0.00 0.00 0.00 0.00 0.01 0.01 0.00 0.00 0.00 0.00 0.01 0.01 0.01 0.02 0.02 0.02 0.03 0.03 0.03 0.03 0.03 0.03 0.02 0.02 0.02
0.01 0.01 0.01 0.00 0.00 0.00 0.00 0.00 0.00 0.00 0.00 0.00 0.00 0.00 0.00 0.00 0.00 0.00 0.00 0.00 0.00 0.00 0.00 0.01 0.00 0.00 0.00 0.00 0.01 0.01 0.01 0.01 0.02 0.02 0.02 0.03 0.03 0.03 0.03 0.03 0.03 0.03 0.02 0.02
0.00 0.00 0.00 0.00 0.00 0.00 0.00 0.00 0.00 0.00 0.00 0.00 0.00 0.00 0.00 0.00 0.00 0.00 0.00 0.00 0.00 0.00 0.00 0.00 0.00 0.01 0.00 0.00 0.01 0.01 0.01 0.01 0.01 0.02 0.02 0.03 0.03 0.03 0.03 0.03 0.03 0.03 0.03 0.02
0.00 0.00 0.00 0.00 0.00 0.00 0.00 0.00 0.00 0.00 0.00 0.00 0.00 0.00 0.00 0.00 0.00 0.00 0.00 0.00 0.00 0.00 0.00 0.00 0.00 0.01 0.01 0.01 0.01 0.01 0.01 0.01 0.01 0.02 0.02 0.03 0.03 0.03 0.03 0.03 0.03 0.03 0.03 0.03
0.00 0.00 0.00 0.00 0.00 0.00 0.00 0.00 0.00 0.00 0.00 0.00 0.00 0.00 0.00 0.00 0.00 0.00 0.00 0.00 0.00 0.00 0.00 0.00 0.01 0.01 0.01 0.01 0.01 0.01 0.01 0.01 0.01 0.02 0.02 0.03 0.03 0.03 0.03 0.03 0.03 0.02 0.03 0.03
0.00 0.00 0.00 0.00 0.00 0.00 0.00 0.00 0.00 0.00 0.00 0.00 0.00 0.00 0.01 0.01 0.01 0.01 0.01 0.01 0.00 0.00 0.00 0.00 0.01 0.01 0.01 0.01 0.01 0.01 0.01 0.01 0.01 0.01 0.02 0.03 0.03 0.03 0.03 0.03 0.03 0.03 0.03 0.03
0.00 0.00 0.00 0.00 0.00 0.00 0.00 0.00 0.00 0.00 0.00 0.00 0.00 0.00 0.01 0.01 0.01 0.01 0.01 0.01 0.01 0.01 0.01 0.01 0.01 0.01 0.01 0.01 0.01 0.01 0.01 0.01 0.01 0.01 0.02 0.02 0.03 0.03 0.03 0.03 0.03 0.03 0.03 0.03
0.00 0.00 0.00 0.00 0.00 0.00 0.00 0.00 0.00 0.00 0.00 0.00 0.00 0.00 0.00 0.01 0.01 0.01 0.02 0.02 0.02 0.01 0.01 0.01 0.01 0.01 0.01 0.01 0.01 0.01 0.01 0.01 0.01 0.01 0.01 0.02 0.02 0.03 0.03 0.04 0.04 0.03 0.03 0.03
0.00 0.00 0.00 0.00 0.00 0.00 0.00 0.00 0.00 0.00 0.00 0.00 0.00 0.01 0.01 0.01 0.01 0.01 0.01 0.01 0.02 0.02 0.01 0.01 0.01 0.01 0.01 0.01 0.01 0.01 0.01 0.01 0.01 0.01 0.01 0.02 0.02 0.03 0.03 0.03 0.04 0.04 0.04 0.04
0.00 0.00 0.00 0.00 0.00 0.00 0.00 0.00 0.00 0.00 0.00 0.00 0.01 0.01 0.01 0.01 0.01 0.00 0.01 0.01 0.01 0.01 0.01 0.01 0.01 0.01 0.01 0.01 0.00 0.00 0.00 0.00 0.01 0.01 0.01 0.01 0.02 0.02 0.03 0.03 0.03 0.04 0.04 0.04
MSLP
1019.23 1018.71 1018.07 1017.29 1016.35 1015.25 1014.00 1012.64 1011.23 1009.79 1008.40 1007.08 1005.86 1004.73 1003.65 1002.59 1001.48 1000.29 998.99 997.57 996.07 994.57 993.16 991.93 991.00 990.42 990.26 990.52 991.16 992.11 993.28 994.58 995.92 997.23 998.46 999.59 1000.63 1001.57 1002.46 1003.32 1004.15 1004.98 1005.81 1006.63
1018.97 1018.51 1017.92 1017.18 1016.28 1015.23 1014.05 1012.79 1011.49 1010.18 1008.92 1007.73 1006.60 1005.51 1004.43 1003.30 1002.08 1000.72 999.21 997.56 995.84 994.13 992.54 991.16 990.11 989.46 989.24 989.47 990.10 991.04 992.21 993.51 994.86 996.17 997.41 998.54 999.57 1000.52 1001.40 1002.24 1003.07 1003.88 1004.70 1005.51
1018.49 1018.03 1017.45 1016.74 1015.89 1014.92 1013.85 1012.73 1011.58 1010.45 1009.36 1008.31 1007.30 1006.29 1005.24 1004.08 1002.78 1001.30 999.65 997.86 995.99 994.15 992.44 990.98 989.85 989.14 988.86 989.03 989.60 990.47 991.56 992.78 994.04 995.27 996.43 997.50 998.47 999.37 1000.22 1001.04 1001.84 1002.65 1003.46 1004.28
1017.90 1017.39 1016.78 1016.08 1015.27 1014.39 1013.45 1012.48 1011.51 1010.56 1009.66 1008.78 1007.90 1006.98 1005.98 1004.83 1003.50 1001.97 1000.26 998.40 996.48 994.59 992.84 991.35 990.20 989.44 989.11 989.20 989.65 990.39 991.33 992.39 993.48 994.54 995.55 996.48 997.33 998.14 998.91 999.68 1000.46 1001.25 1002.07 1002.90
1017.31 1016.70 1016.04 1015.32 1014.55 1013.74 1012.92 1012.10 1011.30 1010.53 1009.80 1009.07 1008.32 1007.50 1006.56 1005.45 1004.14 1002.62 1000.92 999.08 997.18 995.32 993.62 992.16 991.01 990.24 989.86 989.86 990.17 990.73 991.47 992.29 993.15 993.98 994.76 995.49 996.18 996.85 997.51 998.21 998.94 999.71 1000.53 1001.39
1016.74 1016.04 1015.31 1014.57 1013.82 1013.08 1012.35 1011.65 1010.99 1010.37 1009.77 1009.17 1008.52 1007.79 1006.91 1005.85 1004.60 1003.14 1001.50 999.75 997.95 996.20 994.60 993.22 992.13 991.38 990.95 990.86 991.02 991.38 991.88 992.44 993.02 993.58 994.10 994.59 995.08 995.57 996.11 996.70 997.37 998.11 998.93 999.81
1016.20 1015.41 1014.64 1013.88 1013.15 1012.45 1011.79 1011.18 1010.62 1010.09 1009.58 1009.06 1008.48 1007.80 1006.98 1005.99 1004.81 1003.44 1001.93 1000.31 998.67 997.08 995.62 994.37 993.37 992.65 992.21 992.03 992.05 992.22 992.48 992.78 993.08 993.36 993.61 993.86 994.13 994.44 994.82 995.30 995.89 996.58 997.39 998.29
1015.63 1014.80 1014.01 1013.25 1012.54 1011.88 1011.27 1010.71 1010.20 1009.72 1009.25 1008.75 1008.20 1007.55 1006.78 1005.85 1004.75 1003.51 1002.14 1000.70 999.24 997.84 996.57 995.47 994.59 993.93 993.49 993.25 993.16 993.16 993.21 993.28 993.33 993.35 993.36 993.38 993.44 993.57 993.80 994.16 994.66 995.29 996.07 996.96
1014.96 1014.15 1013.39 1012.66 1011.99 1011.36 1010.78 1010.25 1009.75 1009.27 1008.79 1008.29 1007.74 1007.10 1006.35 1005.48 1004.48 1003.36 1002.16 1000.91 999.66 998.46 997.38 996.45 995.69 995.11 994.70 994.43 994.25 994.13 994.02 993.90 993.76 993.59 993.40 993.23 993.12 993.09 993.19 993.43 993.82 994.39 995.11 995.98
1014.15 1013.41 1012.72 1012.06 1011.44 1010.86 1010.31 1009.79 1009.28 1008.78 1008.27 1007.74 1007.16 1006.52 1005.80 1004.98 1004.08 1003.10 1002.06 1001.00 999.95 998.96 998.07 997.30 996.66 996.17 995.79 995.51 995.29 995.09 994.88 994.64 994.37 994.06 993.75 993.45 993.21 993.06 993.04 993.18 993.49 993.97 994.63 995.46
1013.18 1012.56 1011.97 1011.42 1010.89 1010.37 1009.85 1009.34 1008.82 1008.29 1007.75 1007.18 1006.58 1005.93 1005.24 1004.49 1003.68 1002.83 1001.95 1001.06 1000.20 999.39 998.66 998.03 997.51 997.09 996.75 996.48 996.24 996.01 995.76 995.46 995.13 994.76 994.37 994.01 993.69 993.47 993.37 993.43 993.66 994.06 994.66 995.42
1012.07 1011.60 1011.16 1010.73 1010.31 1009.87 1009.41 1008.92 1008.40 1007.86 1007.29 1006.70 1006.09 1005.46 1004.80 1004.11 1003.40 1002.67 1001.93 1001.20 1000.49 999.82 999.22 998.70 998.25 997.89 997.59 997.33 997.10 996.86 996.60 996.30 995.96 995.59 995.20 994.82 994.49 994.23 994.09 994.09 994.26 994.60 995.12 995.81
1010.89 1010.58 1010.29 1010.01 1009.71 1009.37 1008.99 1008.55 1008.06 1007.53 1006.96 1006.38 1005.78 1005.17 1004.56 1003.94 1003.32 1002.70 1002.08 1001.46 1000.87 1000.30 999.79 999.32 998.92 998.58 998.30 998.05 997.83 997.60 997.36 997.09 996.78 996.45 996.09 995.75 995.43 995.18 995.03 995.00 995.13 995.41 995.87 996.49
1009.72 1009.55 1009.42 1009.29 1009.12 1008.90 1008.61 1008.24 1007.80 1007.31 1006.77 1006.22 1005.65 1005.09 1004.54 1004.00 1003.46 1002.92 1002.39 1001.86 1001.33 1000.83 1000.35 999.91 999.52 999.17 998.88 998.62 998.40 998.19 997.97 997.74 997.49 997.21 996.92 996.63 996.37 996.15 996.01 995.98 996.08 996.32 996.73 997.28
1008.61 1008.57 1008.58 1008.59 1008.56 1008.45 1008.26 1007.98 1007.62 1007.19 1006.71 1006.21 1005.70 1005.19 1004.70 1004.23 1003.76 1003.29 1002.82 1002.33 1001.85 1001.36 1000.88 1000.43 1000.01 999.64 999.31 999.03 998.80 998.59 998.40 998.21 998.01 997.80 997.58 997.36 997.15 996.98 996.87 996.85 996.94 997.16 997.53 998.03
1007.60 1007.67 1007.80 1007.93 1008.02 1008.03 1007.95 1007.76 1007.48 1007.12 1006.72 1006.28 1005.83 1005.39 1004.97 1004.55 1004.13 1003.71 1003.27 1002.82 1002.34 1001.84 1001.34 1000.85 1000.39 999.97 999.59 999.28 999.02 998.81 998.63 998.47 998.32 998.17 998.01 997.85 997.70 997.58 997.51 997.52 997.61 997.82 998.16 998.62
1006.71 1006.87 1007.09 1007.32 1007.51 1007.62 1007.62 1007.53 1007.33 1007.05 1006.71 1006.35 1005.97 1005.59 1005.22 1004.85 1004.48 1004.09 1003.68 1003.22 1002.74 1002.22 1001.69 1001.16 1000.64 1000.17 999.75 999.39 999.10 998.87 998.69 998.55 998.43 998.32 998.21 998.11 998.01 997.94 997.91 997.94 998.05 998.25 998.57 998.99
1005.92 1006.14 1006.43 1006.73 1006.99 1007.18 1007.26 1007.23 1007.11 1006.90 1006.63 1006.33 1006.01 1005.69 1005.37 1005.04 1004.71 1004.35 1003.95 1003.50 1003.01 1002.48 1001.92 1001.35 1000.80 1000.28 999.82 999.42 999.10 998.85 998.66 998.52 998.42 998.33 998.25 998.19 998.13 998.10 998.10 998.15 998.27 998.48 998.79 999.18
1005.22 1005.47 1005.80 1006.15 1006.46 1006.69 1006.82 1006.85 1006.77 1006.62 1006.41 1006.16 1005.90 1005.63 1005.35 1005.07 1004.77 1004.43 1004.06 1003.63 1003.14 1002.61 1002.04 1001.46 1000.89 1000.35 999.86 999.44 999.10 998.83 998.62 998.47 998.36 998.28 998.22 998.17 998.14 998.13 998.16 998.23 998.37 998.58 998.87 999.24
1004.58 1004.86 1005.20 1005.57 1005.89 1006.14 1006.29 1006.35 1006.31 1006.20 1006.03 1005.83 1005.62 1005.39 1005.16 1004.92 1004.66 1004.37 1004.02 1003.63 1003.17 1002.66 1002.11 1001.55 1000.98 1000.44 999.95 999.52 999.16 998.87 998.65 998.48 998.36 998.27 998.20 998.16 998.14 998.14 998.18 998.27 998.41 998.62 998.91 999.26
1003.99 1004.28 1004.63 1004.98 1005.29 1005.54 1005.69 1005.76 1005.74 1005.65 1005.52 1005.36 1005.19 1005.01 1004.83 1004.64 1004.43 1004.18 1003.89 1003.54 1003.13 1002.67 1002.17 1001.64 1001.11 1000.60 1000.11 999.69 999.32 999.01 998.77 998.58 998.43 998.33 998.25 998.20 998.17 998.18 998.22 998.32 998.47 998.68 998.95 999.28
1003.47 1003.76 1004.08 1004.41 1004.69 1004.91 1005.04 1005.10 1005.09 1005.02 1004.91 1004.79 1004.66 1004.53 1004.40 1004.27 1004.11 1003.93 1003.70 1003.42 1003.07 1002.68 1002.24 1001.77 1001.28 1000.81 1000.35 999.94 999.57 999.25 998.99 998.77 998.59 998.46 998.35 998.29 998.25 998.25 998.30 998.39 998.54 998.75 999.01 999.32
1003.02 1003.29 1003.58 1003.86 1004.10 1004.27 1004.38 1004.41 1004.40 1004.34 1004.26 1004.17 1004.08 1004.00 1003.93 1003.85 1003.76 1003.64 1003.48 1003.27 1003.00 1002.67 1002.30 1001.90 1001.47 1001.04 1000.62 1000.22 999.86 999.53 999.24 999.00 998.79 998.62 998.49 998.40 998.34 998.33 998.37 998.46 998.61 998.81 999.07 999.36
1002.64 1002.88 1003.13 1003.35 1003.53 1003.65 1003.72 1003.73 1003.70 1003.65 1003.59 1003.53 1003.49 1003.45 1003.43 1003.41 1003.38 1003.32 1003.22 1003.08 1002.88 1002.63 1002.33 1001.99 1001.62 1001.23 1000.85 1000.47 1000.11 999.77 999.47 999.20 998.96 998.76 998.59 998.47 998.40 998.37 998.40 998.49 998.63 998.82 999.07 999.35
1002.33 1002.53 1002.71 1002.87 1002.98 1003.05 1003.07 1003.05 1003.01 1002.96 1002.92 1002.89 1002.88 1002.89 1002.91 1002.94 1002.96 1002.95 1002.91 1002.83 1002.69 1002.50 1002.26 1001.98 1001.67 1001.33 1000.97 1000.61 1000.26 999.92 999.61 999.31 999.05 998.81 998.62 998.47 998.37 998.33 998.34 998.42 998.55 998.73 998.97 999.24
1002.05 1002.19 1002.31 1002.39 1002.44 1002.44 1002.42 1002.38 1002.32 1002.28 1002.25 1002.24 1002.26 1002.30 1002.36 1002.42 1002.47 1002.51 1002.51 1002.47 1002.38 1002.25 1002.06 1001.83 1001.56 1001.26 1000.94 1000.61 1000.27 999.93 999.61 999.30 999.01 998.76 998.54 998.36 998.24 998.18 998.17 998.23 998.35 998.52 998.74 999.00
1001.78 1001.85 1001.89 1001.90 1001.88 1001.83 1001.76 1001.69 1001.63 1001.58 1001.56 1001.57 1001.60 1001.67 1001.74 1001.83 1001.91 1001.97 1002.00 1001.99 1001.94 1001.85 1001.70 1001.51 1001.29 1001.03 1000.74 1000.44 1000.12 999.80 999.48 999.16 998.86 998.59 998.35 998.15 998.01 997.92 997.89 997.93 998.03 998.18 998.39 998.63
Thickness
5443 5450 5450 5452 5453 5450 5448 5449 5450 5464 5466 5483 5481 5476 5474 5472 5471 5472 5472 5472 5473 5472 5473 5473 5474 5475 5477 5477 5478 5479 5479 5481 5484 5486 5488 5491 5493 5495 5496 5497 5498 5498 5498 5497
5435 5444 5442 5445 5452 5450 5450 5451 5451 5457 5465 5477 5472 5466 5464 5463 5463 5464 5464 5465 5465 5465 5465 5466 5466 5467 5469 5469 5469 5469 5471 5473 5475 5476 5478 5480 5483 5485 5486 5488 5488 5488 5487 5487
5425 5428 5434 5442 5456 5452 5450 5451 5451 5454 5465 5466 5462 5462 5460 5458 5457 5457 5457 5458 5458 5458 5458 5459 5458 5459 5460 5460 5461 5462 5462 5465 5466 5467 5468 5470 5473 5475 5476 5477 5477 5477 5477 5475
5407 5416 5429 5463 5458 5454 5451 5452 5450 5454 5457 5455 5456 5455 5453 5451 5449 5449 5450 5451 5451 5451 5452 5451 5450 5450 5451 5452 5453 5454 5455 5456 5457 5458 5459 5461 5463 5464 5466 5466 5466 5466 5465 5465
5397 5404 5423 5451 5452 5446 5443 5448 5449 5447 5450 5449 5446 5445 5447 5446 5444 5443 5443 5443 5443 5443 5442 5442 5442 5442 5442 5443 5443 5444 5445 5447 5448 5448 5450 5451 5452 5454 5455 5455 5456 5455 5455 5455
5390 5404 5422 5452 5447 5442 5440 5440 5447 5442 5442 5439 5436 5435 5443 5441 5437 5436 5436 5436 5435 5435 5434 5434 5435 5435 5434 5434 5435 5435 5436 5437 5438 5439 5440 5440 5441 5443 5444 5445 5445 5445 5444 5445
5386 5392 5416 5437 5435 5435 5432 5440 5440 5436 5434 5431 5428 5430 5431 5430 5428 5427 5427 5427 5427 5427 5426 5426 5426 5426 5425 5425 5424 5425 5426 5427 5428 5430 5430 5430 5431 5433 5433 5434 5434 5433 5434 5434
5383 5388 5416 5432 5426 5426 5431 5431 5428 5427 5425 5423 5421 5421 5420 5420 5419 5419 5419 5419 5418 5418 5417 5417 5417 5417 5417 5415 5416 5417 5418 5419 5419 5420 5420 5421 5421 5422 5423 5423 5423 5423 5423 5423
5402 5419 5425 5420 5422 5423 5420 5420 5420 5418 5417 5414 5413 5413 5412 5412 5411 5411 5410 5410 5410 5410 5409 5409 5408 5408 5408 5408 5408 5408 5409 5409 5409 5410 5410 5411 5411 5412 5412 5412 5412 5412 5412 5413
5394 5409 5413 5412 5411 5412 5412 5412 5412 5410 5409 5407 5406 5405 5404 5403 5402 5402 5402 5402 5402 5401 5401 5400 5399 5399 5399 5399 5399 5399 5399 5399 5400 5400 5400 5400 5401 5401 5401 5401 5401 5401 5401 5401
5392 5402 5405 5408 5405 5406 5406 5405 5404 5403 5402 5400 5399 5397 5396 5395 5394 5393 5394 5393 5393 5393 5393 5392 5391 5391 5390 5390 5390 5390 5390 5390 5389 5389 5389 5390 5391 5390 5391 5391 5391 5390 5390 5390
5397 5401 5397 5402 5402 5400 5398 5397 5396 5394 5393 5393 5391 5389 5388 5387 5386 5385 5385 5384 5383 5383 5384 5383 5383 5382 5382 5381 5381 5380 5381 5380 5380 5380 5380 5380 5380 5381 5380 5381 5381 5381 5380 5381
5392 5393 5390 5391 5392 5390 5389 5389 5388 5386 5385 5384 5382 5381 5379 5378 5377 5376 5375 5375 5374 5375 5375 5374 5374 5373 5373 5373 5373 5372 5371 5371 5370 5370 5370 5370 5370 5370 5370 5371 5371 5371 5371 5371
5380 5380 5381 5382 5382 5381 5380 5380 5379 5377 5376 5374 5373 5372 5370 5369 5368 5367 5366 5366 5366 5366 5366 5366 5365 5365 5364 5364 5364 5363 5362 5362 5362 5361 5360 5360 5360 5359 5360 5360 5360 5360 5360 5360
5371 5370 5371 5372 5371 5370 5370 5369 5368 5367 5366 5365 5364 5363 5361 5360 5359 5359 5359 5358 5357 5357 5357 5357 5357 5356 5356 5355 5355 5354 5353 5353 5353 5352 5351 5350 5350 5349 5349 5349 5349 5348 5348 5348
5363 5362 5362 5361 5361 5361 5359 5358 5358 5358 5357 5356 5354 5353 5351 5350 5349 5349 5349 5348 5348 5349 5349 5348 5348 5348 5347 5347 5346 5345 5344 5345 5344 5343 5342 5341 5340 5340 5339 5339 5339 5338 5337 5337
5353 5355 5354 5353 5353 5352 5351 5350 5349 5349 5347 5346 5345 5343 5341 5340 5339 5339 5339 5339 5339 5339 5339 5339 5339 5340 5339 5338 5337 5336 5335 5335 5335 5333 5332 5331 5330 5330 5330 5330 5329 5328 5328 5328
5349 5350 5349 5348 5346 5344 5343 5342 5341 5339 5338 5337 5335 5333 5331 5331 5330 5330 5329 5329 5329 5330 5330 5330 5331 5331 5330 5330 5329 5328 5327 5325 5325 5324 5322 5322 5321 5321 5320 5320 5319 5319 5319 5318
5341 5341 5340 5339 5337 5335 5334 5333 5332 5330 5329 5327 5325 5324 5323 5322 5321 5320 5320 5319 5319 5320 5321 5321 5323 5322 5321 5321 5321 5319 5317 5316 5315 5314 5314 5314 5313 5312 5312 5311 5311 5310 5310 5310
5332 5332 5331 5330 5329 5327 5326 5325 5323 5321 5320 5318 5316 5315 5314 5313 5312 5310 5310 5310 5311 5311 5311 5312 5312 5312 5312 5312 5312 5310 5309 5307 5307 5306 5305 5304 5303 5303 5303 5303 5302 5302 5301 5301
5322 5322 5321 5320 5319 5318 5317 5315 5314 5312 5311 5309 5307 5306 5305 5304 5303 5301 5301 5302 5304 5303 5303 5304 5303 5303 5303 5303 5303 5301 5300 5299 5298 5297 5296 5296 5295 5295 5295 5294 5294 5294 5293 5293
5313 5312 5311 5311 5310 5309 5308 5306 5305 5304 5302 5300 5299 5297 5296 5295 5294 5293 5293 5294 5296 5296 5296 5295 5295 5295 5294 5295 5294 5292 5291 5290 5290 5289 5288 5288 5287 5287 5287 5286 5286 5286 5286 5286
5305 5304 5303 5302 5300 5299 5298 5296 5295 5294 5293 5291 5290 5289 5288 5287 5286 5285 5287 5288 5288 5289 5288 5287 5287 5288 5288 5286 5285 5283 5282 5282 5281 5281 5280 5280 5280 5280 5279 5279 5279 5279 5279 5279
5297 5295 5294 5292 5290 5289 5288 5287 5286 5285 5284 5283 5282 5281 5280 5279 5279 5279 5280 5281 5281 5281 5281 5281 5281 5280 5279 5277 5276 5275 5274 5274 5273 5273 5273 5273 5273 5273 5272 5272 5272 5273 5273 5273
5289 5287 5285 5283 5282 5281 5280 5279 5277 5276 5275 5274 5274 5273 5273 5272 5272 5273 5273 5273 5274 5273 5272 5272 5273 5272 5270 5269 5268 5267 5267 5266 5267 5267 5267 5267 5267 5267 5267 5266 5267 5267 5268 5268
5280 5279 5278 5277 5275 5274 5273 5271 5270 5269 5268 5267 5267 5266 5266 5266 5266 5265 5265 5265 5265 5265 5264 5264 5263 5263 5262 5262 5261 5261 5261 5261 5260 5260 5260 5260 5260 5261 5261 5262 5261 5262 5262 5262
5273 5272 5270 5269 5268 5267 5266 5264 5263 5262 5260 5259 5258 5259 5258 5258 5258 5258 5257 5257 5257 5257 5257 5256 5256 5256 5255 5255 5255 5255 5255 5255 5255 5255 5254 5254 5255 5255 5256 5256 5257 5257 5257 5258